Location: Brantley
(31.5822°N, 86.2569°W)
Time: 22:23:00
(UTC+00:00)

A-11 Canister half - Pass Details

Date: 24 February 2026
Orbit: 1525 x 1683 km, 47.3° (Epoch: 10 March)

Event Time Altitude Azimuth Distance (km) Brightness Sun altitude
Rises 01:19:53 0° 306° (NW) 4,684 12.4 -22.3°
Reaches altitude 10° 01:23:12 10° 314° (NW) 3,694 11.6 -23.0°
Maximum altitude 01:31:54 42° 23° (NNE) 2,054 9.4 -24.8°
Enters shadow 01:34:36 35° 59° (ENE) 2,270 9.4 -25.4°
